Satellite-Ground Cal/Val Site Overpasses Predictions

Prediction of Satellite NPP Overpassing Cal/Val Site: Antarctic Dome C

Ground Cal/Val Site Location: Latitude: -75.10, Longitude: 123.35; Satellite-Ground Site NADIR distance within 100 km.

Table of predicted overpasses for the next 14.0 days since TLE Epoch: 3/7/2017
Interval Starting Time Ending Time Minimum Distance Time Minimum Distance (km)
1 03/07/2017 15:01:08 03/07/2017 15:01:32 03/07/2017 15:01:20 57.96
2 03/08/2017 14:42:16 03/08/2017 14:42:41 03/08/2017 14:42:29 51.24
3 03/09/2017 07:43:57 03/09/2017 07:44:18 03/09/2017 07:44:08 70.97
4 03/10/2017 07:25:03 03/10/2017 07:25:31 03/10/2017 07:25:17 37.06
5 03/12/2017 15:07:28 03/12/2017 15:07:36 03/12/2017 15:07:32 95.32
6 03/13/2017 14:48:27 03/13/2017 14:48:56 03/13/2017 14:48:42 15.95
7 03/15/2017 07:31:15 03/15/2017 07:31:45 03/15/2017 07:31:30 0.73
8 03/18/2017 14:54:40 03/18/2017 14:55:09 03/18/2017 14:54:55 20.19
9 03/19/2017 14:35:57 03/19/2017 14:36:11 03/19/2017 14:36:04 86.88
